Flag for Germany Weather past 2 weeks in Sankt Ingbert, Saarland, Germany

Now
48 °F

Low clouds.


Feels Like: 44 °F
Forecast: 42 / 48 °F
Wind: 8 mph from Southwest

Location: Saarbruecken / Ensheim

Current Time: Mar 29, 2015 at 9:56:25 AM

Latest Report: Mar 29, 2015 at 9:00 AM


Visibility: 16 mi

Pressure: 29.87 "Hg

Humidity: 94%

Dew point: 46 °F

Location of Sankt IngbertLocation

Historic Weather in Sankt Ingbert — Graph

°F

Sankt Ingbert temperature yesterday

Maximum temperature yesterday: 51 °F (at 1:00 PM)
Minimum temperature yesterday: 32 °F (at 2:00 AM)
Average temperature yesterday: 43 °F

Past Weeks' High & Low Weather Summary

 TemperatureHumidityPressure
High65 °F (Mar 18, 4:00 PM)100% (Mar 24, 5:00 AM)30.32 "Hg (Mar 24, 5:00 AM)
Low31 °F (Mar 14, 7:00 AM)31% (Mar 18, 4:00 PM)29.66 "Hg (Mar 25, 4:00 AM)
Average44 °F77%30.09 "Hg
* Reported Mar 14 7:00 AM — Mar 29 8:00 AM, Sankt Ingbert, Weather by CustomWeather, © 2015

Note: Actual official high and low records may vary slightly from our data, if they occured in-between our weather recording intervals... More about our weather records

Advertising

Sankt Ingbert weather history for previous 24 hours

 ConditionsComfort  
Time TempWeatherWind HumidityBarometerVisibility
8:00 AM
Sun, Mar 29
48 °FLight rain. Low clouds.9 mph96%29.88 "Hg16 mi
7:00 AM48 °FLight rain. Low clouds.9 mph97%29.89 "Hg5 mi
6:00 AM49 °FDrizzle. Low clouds.9 mph96%29.90 "Hg9 mi
5:00 AM49 °FLight rain. Low clouds.9 mph95%29.91 "Hg19 mi
4:00 AM49 °FLight rain. Low clouds.10 mph97%29.92 "Hg4 mi
3:00 AM49 °FLight rain. Low clouds.8 mph98%29.95 "Hg3 mi
1:00 AM48 °FLight rain. Low clouds.8 mph97%29.97 "Hg5 mi
12:00 AM48 °FDrizzle. Low clouds.6 mph96%29.98 "Hg6 mi
11:00 PM
Sat, Mar 28
48 °FLow clouds.7 mph97%30.00 "Hg6 mi
10:00 PM47 °FLow clouds.7 mph99%30.01 "Hg3 mi
9:00 PM46 °FDrizzle. Low clouds.6 mph99%30.03 "Hg2 mi
8:00 PM46 °FDrizzle. Low clouds.6 mph99%30.06 "Hg2 mi
7:00 PM46 °FLow clouds.7 mph97%30.05 "Hg3 mi
6:00 PM46 °FLow clouds.5 mph95%30.06 "Hg4 mi
5:00 PM47 °FLight rain. Overcast.7 mph84%30.07 "Hg6 mi
4:00 PM50 °FOvercast.8 mph64%30.08 "Hg25 mi
3:00 PM49 °FOvercast.8 mph62%30.10 "Hg25 mi
2:00 PM50 °FOvercast.8 mph58%30.11 "Hg16 mi
1:00 PM51 °FOvercast.7 mph54%30.13 "Hg16 mi
12:00 PM51 °FOvercast.8 mph56%30.15 "Hg19 mi
11:00 AM48 °FOvercast.6 mph55%30.19 "Hg14 mi
10:00 AM47 °FPartly sunny.3 mph62%30.20 "Hg11 mi
9:00 AM42 °FPartly sunny.6 mph69%30.22 "Hg10 mi
Weather by CustomWeather, © 2015

See weather overviewHow to use our weather pages